Powrót do katalogu

KUIPER-00317

AktywnyŁącznośćLEO
NORAD 68600·PAYLOAD·🇺🇸 United States

Wystrzelony Apr 4, 2026 z Cape Canaveral Space Force Station

Loading…

Następne Przeloty (najbliższe 24 godziny)

TLE

ŚwieżeSource: CelesTrak SupGP

Epoka: Sep 15, 2026, 04:09 UTC

1 68600C 26072AD  26258.17337963  .00007560  00000+0  98980-3 0  2581
2 68600  51.8965 137.7356 0000739  97.5141 141.7991 14.79916640    14

Śledź KUIPER-00317 w czasie rzeczywistym z AllMySat

Download on the App Store